Simultaneous Nadir Overpasses (SNOs) Predictions

Prediction of SNOs between AQUA and LANDSAT-8 Satellite Orbit:

Table of predicted SNOs for the next 14.0 days since TLE Epoch: 1/10/2025
Index Date (AQUA) Time (AQUA) Lat,Lon (AQUA) SZA (AQUA ) Date (LANDSAT-8) Time (LANDSAT-8) Lat,Lon (LANDSAT-8) SZA (LANDSAT-8 ) Distance(km) Time Diff (sec)
1 01/17/2025 10:34:38 -74.23,-152.81 85.19 01/17/2025 10:33:30 -74.26,-154.69 85.18 57.04 68
2 01/17/2025 11:24:02 74.42, 14.41 94.99 01/17/2025 11:22:52 74.43, 13.36 94.99 31.23 70
3 01/17/2025 12:13:25 -74.66,-178.53 84.78 01/17/2025 12:12:15 -74.67,-178.42 84.78 3.28 70
4 01/17/2025 13:02:45 74.65, -10.82 95.20 01/17/2025 13:01:41 74.64, -10.85 95.19 1.07 64
5 01/17/2025 13:52:04 -74.69, 156.75 84.77 01/17/2025 13:51:08 -74.67, 156.86 84.79 3.73 56
6 01/17/2025 14:41:24 74.67, -35.54 95.21 01/17/2025 14:40:34 74.64, -35.57 95.18 3.10 50
7 01/17/2025 15:30:42 -74.66, 132.16 84.81 01/17/2025 15:30:01 -74.68, 132.15 84.80 1.62 41
8 01/17/2025 16:20:03 74.70, -60.26 95.22 01/17/2025 16:19:26 74.70, -60.15 95.22 3.18 37
9 01/17/2025 17:09:21 -74.69, 107.44 84.80 01/17/2025 17:08:54 -74.68, 107.43 84.81 0.82 27
10 01/17/2025 17:58:41 74.67, -84.85 95.18 01/17/2025 17:58:19 74.70, -84.87 95.21 3.48 22
11 01/17/2025 18:48:00 -74.71, 82.72 84.79 01/17/2025 18:47:47 -74.68, 82.72 84.82 3.21 13
12 01/17/2025 19:37:20 74.69,-109.57 95.19 01/17/2025 19:37:12 74.70,-109.58 95.20 1.05 8
13 01/17/2025 20:26:38 -74.68, 58.13 84.83 01/17/2025 20:26:40 -74.68, 58.00 84.83 3.61 2
14 01/17/2025 21:15:59 74.72,-134.29 95.20 01/17/2025 21:16:05 74.70,-134.30 95.19 1.44 6
15 01/17/2025 22:05:17 -74.71, 33.41 84.82 01/17/2025 22:05:32 -74.74, 33.42 84.79 3.23 15
16 01/17/2025 22:54:38 74.74,-159.02 95.21 01/17/2025 22:54:58 74.71,-159.01 95.17 3.89 20
17 01/17/2025 23:43:56 -74.73, 8.69 84.81 01/17/2025 23:44:25 -74.74, 8.70 84.81 0.92 29
18 01/18/2025 00:33:16 74.72, 176.39 95.17 01/18/2025 00:33:51 74.71, 176.27 95.16 3.63 35
19 01/18/2025 01:22:35 -74.76, -16.04 84.80 01/18/2025 01:23:18 -74.74, -16.01 84.82 1.77 43
20 01/18/2025 02:11:55 74.74, 151.67 95.18 01/18/2025 02:12:43 74.76, 151.68 95.20 2.51 48
21 01/18/2025 03:01:13 -74.73, -40.63 84.84 01/18/2025 03:02:11 -74.74, -40.73 84.83 3.33 58
22 01/18/2025 03:50:33 74.77, 126.95 95.19 01/18/2025 03:51:35 74.77, 126.97 95.19 0.59 62
23 01/18/2025 04:39:51 -74.75, -65.35 84.83 01/18/2025 04:41:03 -74.75, -65.44 84.84 2.93 72
24 01/18/2025 05:29:15 74.94, 101.83 95.35 01/18/2025 05:30:25 74.92, 102.64 95.34 23.70 70
25 01/18/2025 06:18:40 -75.28, -91.42 84.33 01/18/2025 06:19:46 -75.25, -88.84 84.33 73.04 66



Historial Predications of SNOs between AQUA and LANDSAT-8
